This is the latest recevied weather packets stored in our database for station/object KC3WWU. If no packets are shown the sender has not sent any weather packets the latest 10 day(s).
| Time | Temp. | Humidity | Pressure | Rain* | Wind** | Luminosity | Snow |
|---|---|---|---|---|---|---|---|
| 1778132028 | 6.11° C | 76% | 1010.7 hPa | 0 mm | - | 0 W/m² | - |
| 1778131726 | 6.11° C | 81% | 1010.6 hPa | 0 mm | - | 0 W/m² | - |
| 1778131423 | 6.11° C | 82% | 1010.7 hPa | 0 mm | - | 0 W/m² | - |
| 1778131120 | 6.11° C | 83% | 1010.6 hPa | 0 mm | - | 0 W/m² | - |
| 1778130817 | 6.11° C | 86% | 1010.7 hPa | 0 mm | - | 0 W/m² | - |
| 1778130514 | 6.11° C | 87% | 1010.7 hPa | 0 mm | - | 0 W/m² | - |
| 1778130210 | 5.56° C | 89% | 1011 hPa | 0 mm | - | 0 W/m² | - |
| 1778129907 | 5.56° C | 90% | 1010.6 hPa | 0 mm | - | 0 W/m² | - |
| 1778129604 | 6.11° C | 88% | 1010.8 hPa | 0 mm | - | 0 W/m² | - |
| 1778129301 | 6.11° C | 89% | 1010.7 hPa | 0 mm | - | 0 W/m² | - |
| 1778128997 | 6.11° C | 87% | 1010.8 hPa | 0 mm | - | 0 W/m² | - |
| 1778128693 | 6.11° C | 86% | 1010.9 hPa | 0 mm | - | 0 W/m² | - |
| 1778128390 | 6.11° C | 86% | 1010.6 hPa | 0 mm | - | 0 W/m² | - |
| 1778128087 | 6.67° C | 87% | 1010.8 hPa | 0 mm | - | 0 W/m² | - |
| 1778127782 | 6.67° C | 84% | 1010.8 hPa | 0 mm | - | 0 W/m² | - |
| 1778127479 | 6.67° C | 84% | 1010.7 hPa | 0 mm | - | 0 W/m² | - |
| 1778127176 | 6.67° C | 86% | 1010.7 hPa | 0 mm | - | 0 W/m² | - |
| 1778126873 | 6.67° C | 85% | 1010.8 hPa | 0 mm | - | 0 W/m² | - |
| 1778126569 | 6.67° C | 88% | 1011 hPa | 0 mm | - | 0 W/m² | - |
| 1778126265 | 6.67° C | 89% | 1010.7 hPa | 0 mm | - | 0 W/m² | - |
| 1778125960 | 6.67° C | 91% | 1010.7 hPa | 0 mm | - | 0 W/m² | - |
| 1778125658 | 6.67° C | 90% | 1010.5 hPa | 0 mm | - | 0 W/m² | - |
| 1778125355 | 6.67° C | 90% | 1010.4 hPa | 0 mm | - | 0 W/m² | - |
| 1778125053 | 6.67° C | 88% | 1010.4 hPa | 0 mm | - | 0 W/m² | - |
| 1778124751 | 6.67° C | 89% | 1010.3 hPa | 0 mm | - | 0 W/m² | - |
* Rain latest hour (hover to see other rain measurements)
** Current wind speed in m/s (hover to see current wind gust speed)